Location: Sungai Apap
(2.6167°N, 113.3833°E)
Time: 14:40:55
(UTC+00:00)

FUSE - Pass Details

Date: 25 May 2024
Orbit: 740 x 754 km, 25.0° (Epoch: 12 June)

Event Time Altitude Azimuth Distance (km) Brightness Sun altitude
Exits shadow 21:36:05 13° 245° (WSW) 2,058 5.5 -10.1°
Maximum altitude 21:40:54 85° 332° (NNW) 744 4.0 -9.0°
Drops below altitude 10° 21:46:13 10° 62° (ENE) 2,235 8.1 -7.7°
Sets 21:48:40 0° 63° (ENE) 3,155 9.7 -7.2°
